SCP
0 0 0 0 0 0 0 0 0 0 0 0 0 0 0 0 0 0 0 0 0 0 0 0 0 -0 0 0 0 0 0 0 0 0 0 0 0 0 0 0 0 1 0 0 0 0 0 0 0 0 1 1 0 0
0 0 0 0 0 0 0 0 0 0 0 0 0 0 0 0 0 0 0 0 0 0 0 -0 0 -0 -0 -0 -0 0 0 0 0 0 0 0 0 0 0 0 0 0 0 -0 1 2 2 2 1 3 3 2 0 0
0 0 0 0 0 0 0 0 0 0 0 0 0 0 0 0 0 0 0 0 0 0 0 0 0 0 -0 -0 0 0 0 0 0 0 0 0 0 0 0 0 0 0 0 0 0 0 -0 0 0 1 1 1 1 1
0 0 0 0 0 0 0 0 0 0 0 0 0 0 0 0 0 0 0 0 0 0 0 0 0 0 0 0 0 0 0 0 0 0 0 0 -0 0 0 0 0 0 -0 0 0 1 1 0 0 0 0 1 0 1
0 0 0 0 0 0 0 0 0 0 0 0 0 0 0 0 0 0 0 0 0 0 0 0 -0 0 0 0 0 0 -0 0 -0 0 0 0 0 0 0 0 0 0 -0 0 0 -0 1 0 0 0 0 0 0 0
0 0 0 0 0 0 0 0 0 0 0 0 0 0 0 0 0 0 0 0 0 0 0 0 0 0 0 0 0 0 0 0 0 0 0 0 0 0 0 0 -0 -0 -0 -0 -0 -0 0 0 0 0 0 0 0 -0
0 0 0 0 0 0 0 0 0 0 0 0 0 0 0 0 0 0 0 0 0 0 0 0 0 -0 -0 0 0 0 0 0 0 0 0 -0 0 0 0 0 0 -0 -0 0 0 -0 -0 -0 0 -0 -0 -0 -0 0
0 0 0 0 0 0 0 0 0 0 0 0 0 0 0 0 0 0 0 0 0 0 0 0 0 0 -0 0 0 -0 0 -0 -0 -0 0 0 0 0 0 0 0 0 0 0 0 0 0 0 -0 -0 0 0 0 0
0 0 0 0 0 0 0 0 0 0 0 0 0 0 0 0 0 0 0 0 0 0 0 0 0 0 0 -0 -0 0 0 0 -0 0 0 0 0 0 0 0 0 0 0 0 0 0 0 0 -0 0 -0 0 0 0
0 0 0 0 0 0 0 0 0 0 0 0 0 0 0 0 0 0 0 0 0 0 0 0 0 0 0 0 0 0 0 0 -0 -0 0 0 0 0 0 0 0 0 0 0 0 0 -0 0 0 0 0 0 0 0
0 0 0 0 0 0 0 0 0 0 0 0 0 0 0 0 0 0 0 0 0 0 0 -0 -0 0 0 0 0 0 0 0 0 0 0 0 -0 0 0 0 0 0 0 0 0 0 0 0 0 0 0 0 0 0
0 0 0 0 0 0 0 0 -0 0 0 0 0 0 0 0 0 0 0 0 0 0 0 0 0 -0 0 0 0 0 0 0 0 0 0 0 0 0 0 0 0 0 0 0 0 0 0 0 0 0 0 0 0 0
0 0 0 0 0 0 0 0 0 0 0 0 0 0 0 0 0 0 0 0 0 0 0 0 0 0 0 0 0 0 0 0 0 0 0 0 0 0 0 0 0 0 0 0 0 0 0 0 0 0 0 0 0 0
0 0 0 0 0 0 0 0 0 0 0 0 0 0 0 0 0 0 0 -0 -0 0 0 0 0 0 0 0 0 0 0 0 0 0 0 1 0 0 0 0 0 0 0 0 0 0 0 0 0 0 -0 0 0 0
0 0 0 0 0 0 0 0 0 0 0 0 0 0 0 0 0 -0 0 0 0 0 0 0 0 0 0 0 0 0 0 0 0 0 0 0 1 0 0 0 0 0 0 0 0 0 0 0 0 0 0 0 0 0
0 0 0 0 0 0 0 0 0 0 0 0 0 0 0 0 0 0 0 0 0 0 0 0 0 0 0 0 0 0 0 0 0 0 1 0 0 0 0 0 0 0 0 0 0 0 0 0 0 0 0 0 0 0
0 0 0 0 0 0 0 0 0 0 0 0 0 0 0 0 0 0 0 0 0 0 0 0 0 0 0 0 0 0 0 0 0 0 1 0 0 0 0 0 0 0 0 0 0 0 0 0 0 0 0 0 0 0
0 0 0 0 0 0 0 0 0 0 0 0 0 0 0 0 0 -0 0 0 0 0 0 0 0 0 0 0 0 0 0 0 0 0 0 0 0 0 0 0 0 0 0 0 0 0 0 0 0 0 0 0 0 0
0 0 0 0 0 0 0 0 0 0 0 0 0 0 0 0 -0 -0 0 0 0 0 0 0 0 0 0 0 0 0 0 0 -0 0 0 0 0 0 0 0 0 0 0 0 0 0 0 0 0 0 0 0 0 0
0 0 0 0 0 0 0 0 0 0 0 0 0 0 0 -0 0 0 0 0 0 0 0 0 -0 0 0 0 -0 -0 -0 0 0 0 0 0 0 0 0 0 0 0 0 0 0 0 0 0 0 0 0 0 0 0
0 0 -0 0 0 0 0 -0 -0 -0 -0 -0 -0 -0 -0 -0 -0 0 -0 -0 -0 -0 -0 -0 -0 0 0 0 0 0 0 0 0 0 0 0 0 0 0 0 0 -0 0 0 0 0 0 0 0 0 0 0 0 0
0 0 0 0 -0 -0 -0 -0 -0 -0 -0 -0 -0 -0 -0 -0 -0 -0 0 0 -0 -0 -0 -0 0 0 0 0 0 0 0 0 0 0 0 0 0 0 0 0 0 0 0 0 0 0 0 0 0 0 0 0 0 0
0 0 0 -0 -0 -0 -0 -0 -0 -0 0 0 0 -0 0 0 -0 -0 -0 -0 -0 -0 -0 0 0 0 0 0 0 0 0 0 0 0 0 0 0 0 0 0 0 0 0 0 0 0 0 0 0 0 0 0 0 0
0 0 -0 -0 -0 -0 -0 -0 -0 0 -0 -0 -0 -0 -0 -0 -0 0 -0 -0 -0 -0 0 0 0 0 0 0 0 0 0 0 0 0 0 0 0 0 0 0 0 0 0 0 0 0 0 0 0 0 0 0 0 0
-0 0 0 0 0 0 0 0 -0 -0 -0 -0 0 0 0 0 0 0 0 0 0 0 0 0 0 0 0 0 0 0 0 -0 0 0 0 0 0 0 0 0 0 0 0 0 0 0 0 0 0 0 0 0 0 0
0 0 0 0 0 0 -0 -0 -0 0 0 0 0 0 0 0 0 0 0 0 0 0 0 -0 -0 -0 0 0 0 0 0 0 0 0 0 0 0 0 0 0 0 0 0 0 0 0 -0 0 0 0 0 0 0 0
0 0 0 0 0 0 0 0 0 0 0 0 0 0 0 0 0 0 0 0 0 0 -0 0 0 -0 0 0 0 0 0 0 0 0 0 -0 0 0 0 0 0 0 0 0 0 0 0 0 0 0 -0 -0 0 0
0 0 0 0 0 0 0 0 0 0 0 0 0 0 0 0 0 0 -0 -0 0 0 0 -0 -0 -0 0 0 0 -0 0 0 0 0 0 0 0 0 0 0 0 -0 0 0 0 0 -0 0 0 0 0 0 0 0
0 0 0 0 0 0 0 0 0 0 0 -0 -0 -0 -0 -0 -0 -0 -0 -0 -0 -0 -0 0 0 0 -0 0 0 -0 0 0 0 -0 0 0 -0 0 0 0 0 0 0 0 0 0 0 -0 0 0 -0 0 0 -0
0 0 0 0 0 0 0 0 -0 -0 -0 0 0 -0 -0 -0 -0 -0 -0 -0 -0 -0 0 0 0 -0 -0 0 -0 0 -0 -0 0 -0 0 0 0 0 0 0 0 0 0 0 -0 0 0 0 0 -0 0 -0 0 0
0 0 0 0 0 0 0 0 -0 -0 -0 -0 0 -0 0 -0 0 0 0 0 0 -0 -0 -0 -0 0 0 0 0 0 0 0 -0 0 -0 0 0 0 0 0 0 0 0 0 0 0 0 0 0 0 0 0 0 0
0 -0 -0 -0 0 0 0 0 0 0 -0 -0 -0 -0 0 -0 -0 0 -0 -0 -0 -0 0 0 -0 0 -0 0 0 0 0 -0 0 0 0 0 0 0 0 0 0 0 0 0 0 0 0 0 0 0 0 0 0 0
0 0 0 0 0 0 0 0 0 0 -0 -0 0 0 0 0 -0 0 0 -0 -0 -0 -0 0 -0 0 0 -0 -0 0 0 0 0 0 0 0 0 0 0 0 0 0 0 0 0 -0 0 0 0 0 0 0 0 -0
Wind_Speed_500mb
33 31 30 27 26 24 25 30 34 29 28 27 25 22 18 14 12 11 11 16 19 32 57 47 39 41 31 29 15 23 26 20 18 17 5 15 14 11 6 3 3 4 6 19 25 27 19 21 24 10 14 18 34 26
31 29 27 26 24 22 24 26 33 31 31 28 23 19 16 12 12 7 7 10 18 32 50 51 56 55 50 38 30 20 35 19 9 12 10 9 10 5 10 9 15 13 11 9 14 12 26 37 36 29 33 33 19 24
30 28 26 24 22 22 24 22 26 30 29 25 24 20 18 14 12 11 13 16 29 32 49 47 44 35 37 30 27 26 13 16 17 19 10 1 10 20 17 11 16 21 24 6 7 17 26 34 35 34 32 25 20 22
31 28 25 22 22 22 23 23 27 25 27 27 22 21 18 16 13 14 13 13 21 25 18 27 3 13 20 19 20 24 27 21 24 26 24 5 12 24 10 8 6 6 15 15 3 15 41 28 34 35 32 28 24 25
32 28 25 22 21 21 24 24 27 31 25 22 23 22 18 14 11 13 16 10 11 11 14 36 46 26 21 19 18 17 14 17 23 26 19 18 33 13 7 8 9 7 8 6 2 55 42 27 29 31 30 26 24 25
32 29 27 24 21 22 24 29 26 27 24 24 23 19 14 11 7 5 3 6 5 14 14 9 24 31 14 19 19 19 22 23 23 29 24 26 26 6 11 3 35 21 18 35 23 34 41 26 25 25 23 20 18 19
33 31 28 25 20 20 23 32 28 28 23 23 21 15 10 11 12 10 3 3 10 2 11 13 13 33 22 23 24 23 25 27 30 33 33 32 33 8 8 15 22 34 25 22 22 28 21 20 21 16 14 12 9 12
35 33 30 27 25 21 23 29 33 29 28 25 19 14 8 7 8 11 17 16 10 8 12 9 8 20 20 26 24 25 25 28 26 29 37 24 17 12 3 28 17 12 13 14 7 16 21 12 2 9 8 6 8 11
35 33 30 28 26 25 24 29 34 32 30 28 22 13 6 7 6 9 17 12 13 11 17 12 17 10 7 25 24 15 12 14 20 12 20 15 13 7 14 18 23 18 13 11 6 4 3 2 4 1 2 23 30 25
36 33 31 28 27 26 26 32 39 34 39 34 24 7 6 9 16 9 2 9 14 15 16 16 21 20 29 23 14 6 12 13 9 13 25 7 13 14 13 17 12 9 9 3 3 7 8 18 15 15 5 15 6 8
35 33 32 30 29 28 29 35 42 43 44 34 12 7 5 7 5 6 10 13 18 11 18 29 38 26 31 20 15 16 3 7 7 7 7 9 13 21 17 14 8 8 8 6 4 8 10 10 11 12 8 10 6 3
35 34 33 32 30 29 30 40 45 47 40 28 7 10 7 7 7 9 8 10 12 15 17 25 31 34 25 25 13 9 9 6 7 5 7 9 10 21 20 14 11 8 6 6 4 6 8 12 8 1 5 6 6 5
35 34 33 33 32 31 32 44 45 37 29 25 7 10 11 10 0 11 17 10 10 13 8 10 11 25 6 12 5 7 10 10 10 11 7 9 29 23 19 16 12 5 3 5 6 7 17 11 6 9 5 6 9 6
33 33 34 34 34 33 36 45 50 49 19 9 14 2 11 12 13 16 18 16 21 13 23 12 20 18 21 27 3 8 11 3 8 12 17 19 23 20 13 11 10 6 7 8 10 9 15 9 11 18 22 9 15 18
32 33 34 35 36 40 45 51 58 49 15 14 14 8 18 26 30 34 33 31 25 13 7 7 16 25 15 6 9 6 5 6 13 5 14 23 25 20 13 10 7 1 7 8 15 13 15 16 17 13 17 2 8 9
33 33 36 38 38 48 41 57 56 33 9 8 13 14 23 26 33 34 38 26 11 15 10 11 9 12 7 11 10 9 13 9 8 10 30 31 24 19 15 7 5 6 7 5 9 12 15 14 15 18 11 3 3 4
35 17 35 42 44 51 52 48 29 12 14 12 15 31 35 37 26 25 35 36 26 11 10 13 7 9 8 18 26 5 11 8 18 15 34 31 23 19 13 9 8 5 4 4 3 10 14 15 15 10 9 7 4 2
21 24 24 51 57 53 56 28 16 14 15 25 30 36 36 35 25 27 30 32 19 18 23 19 7 7 7 19 17 9 25 16 10 22 17 21 18 15 13 10 8 5 6 7 11 14 17 20 10 9 10 12 9 10
20 39 36 55 64 38 15 22 16 12 27 27 38 43 38 38 25 28 31 44 25 32 35 21 6 9 19 17 3 21 22 24 42 27 23 19 14 11 9 8 8 7 11 13 14 17 11 12 16 17 15 16 14 20
32 25 45 55 60 25 8 9 19 14 11 20 33 44 41 31 33 37 27 27 38 36 11 12 16 26 36 8 15 20 40 17 10 16 19 19 13 13 9 9 14 9 19 22 23 16 11 10 13 12 16 18 17 17
44 41 48 50 37 20 8 12 17 13 16 21 16 24 34 31 40 42 43 44 47 24 11 29 26 14 9 16 22 21 18 16 24 20 16 8 12 16 19 18 14 12 19 20 15 14 8 16 14 19 20 22 19 18
39 52 44 38 16 7 10 13 9 6 9 14 17 24 21 36 42 44 43 40 47 22 43 41 37 20 22 21 22 22 16 10 10 7 6 2 10 16 14 15 20 20 20 16 13 6 12 16 17 20 17 21 25 22
59 44 24 12 9 9 8 11 7 11 2 11 21 10 8 10 13 8 6 8 10 22 62 14 31 29 24 19 15 11 8 4 5 8 6 8 9 13 16 7 10 15 17 20 19 13 13 19 19 17 18 17 22 22
36 15 9 12 11 6 5 5 8 14 13 4 5 6 8 5 17 26 9 19 53 31 24 20 18 19 15 8 6 3 3 6 9 6 9 10 17 15 11 14 13 17 18 18 17 11 14 17 18 19 18 27 26 28
9 11 10 11 13 9 11 10 8 3 4 11 17 19 21 34 19 24 19 35 28 25 22 23 18 13 14 9 8 8 5 8 5 7 9 6 9 8 8 11 11 13 14 14 14 16 15 18 16 18 18 21 15 19
12 34 30 34 21 16 17 11 13 17 18 18 27 22 33 14 9 7 7 18 31 24 14 17 13 14 14 15 16 4 7 5 12 8 3 4 5 2 0 3 2 6 6 1 2 4 12 14 17 9 15 20 19 22
8 11 8 8 25 29 23 38 40 24 26 25 16 12 8 10 11 6 23 15 16 15 8 7 3 11 7 8 10 19 13 11 5 8 13 7 3 4 5 9 7 9 11 11 12 8 10 13 18 23 22 25 31 35
15 29 24 44 40 41 32 26 26 21 13 8 10 15 9 8 5 8 15 12 7 5 8 11 9 24 17 15 15 17 12 17 16 11 9 10 17 14 7 9 8 15 14 14 20 14 24 25 17 21 33 36 29 33
22 38 41 40 34 20 22 20 19 32 39 41 29 21 19 31 30 26 28 17 17 18 13 9 11 14 10 12 13 21 24 17 17 27 30 15 27 21 19 19 25 37 32 26 28 36 44 32 30 26 35 33 34 32
30 34 38 37 32 19 20 21 43 42 41 47 46 40 34 31 23 10 14 14 19 13 11 12 17 15 12 14 17 10 9 11 15 18 9 4 7 18 24 25 27 22 30 36 19 22 19 20 23 33 33 38 40 37
16 31 42 35 15 24 24 30 37 40 46 42 36 37 36 33 40 39 33 26 24 27 30 27 22 15 20 19 20 20 22 13 16 11 12 20 14 18 25 25 27 24 25 24 27 33 40 35 39 36 35 37 40 46
25 36 34 28 25 31 39 44 41 35 36 34 31 30 28 27 27 40 38 28 29 31 28 26 20 18 29 14 25 14 19 23 18 25 32 26 25 20 22 23 25 26 28 28 33 33 33 40 34 38 40 50 58 58
38 24 26 20 10 6 13 16 20 26 31 32 18 13 24 24 10 13 21 23 25 26 32 25 21 21 32 42 21 25 31 25 32 24 31 26 27 24 20 27 31 36 36 37 40 40 40 45 47 41 45 57 59 65
Wind_Direction_500mb
246 248 249 247 250 253 242 229 224 228 232 230 234 245 246 253 267 286 270 271 281 286 284 280 295 299 308 306 340 347 289 318 344 6 88 324 84 296 3 147 103 13 21 277 250 252 223 130 101 174 158 62 55 65
242 243 243 244 242 246 239 235 223 223 230 230 228 238 234 245 253 273 325 307 291 281 273 283 282 273 265 267 281 285 285 313 328 356 62 261 351 200 295 312 45 337 138 291 328 60 81 70 103 82 84 76 64 73
234 236 239 240 240 239 232 224 217 215 216 217 226 227 231 237 254 260 285 313 319 292 291 270 267 276 241 245 256 252 317 358 303 344 143 302 332 317 319 2 332 17 28 267 355 97 105 103 101 91 93 92 83 69
229 228 230 229 229 230 223 216 209 205 206 214 218 218 232 243 251 273 272 298 320 306 281 302 271 262 247 242 244 244 270 299 306 301 297 225 204 286 39 234 242 88 328 329 355 199 105 99 104 106 95 75 61 59
222 219 221 224 221 221 208 205 204 204 201 210 212 213 230 252 259 285 287 271 299 285 305 303 314 267 231 223 237 254 253 284 293 288 290 294 296 359 116 131 41 348 281 40 314 245 95 111 105 98 85 72 64 62
214 213 213 213 211 209 205 193 195 192 200 196 199 210 225 232 253 334 287 100 280 268 296 294 319 279 238 203 225 240 247 254 266 274 280 295 310 312 294 85 163 137 17 234 268 90 113 111 84 82 85 81 84 83
209 209 208 207 206 205 205 192 194 199 197 193 191 201 211 225 220 219 316 214 332 265 261 273 280 239 226 213 227 233 241 255 266 270 275 269 284 253 307 291 151 174 140 130 119 120 110 97 99 94 91 90 79 81
205 206 204 204 203 201 198 198 197 194 192 189 193 199 221 240 256 267 250 264 316 281 264 276 262 278 193 210 223 223 252 256 246 255 264 276 292 249 284 131 133 106 117 138 110 57 99 100 126 148 53 360 327 93
202 203 202 202 200 200 197 193 185 188 191 192 192 195 215 238 243 255 239 239 245 253 307 271 264 337 209 235 234 163 240 256 250 224 241 258 249 243 116 125 135 146 180 147 101 40 7 188 248 95 30 23 78 89
195 198 198 198 196 195 191 185 180 188 183 179 170 151 233 172 246 262 268 194 206 217 231 255 275 275 291 284 224 228 191 251 215 222 245 196 250 92 157 106 122 160 223 182 321 306 298 68 49 7 356 63 64 114
190 190 191 189 188 188 186 181 179 171 169 167 160 194 207 242 161 230 229 216 201 221 219 237 239 262 288 287 236 197 293 263 282 195 198 222 229 164 130 131 157 176 199 223 245 328 332 326 348 81 73 346 242 190
184 185 185 185 185 183 183 180 178 179 176 163 131 161 175 210 220 255 226 222 232 229 249 210 225 224 260 311 238 224 246 252 250 104 227 241 113 117 133 140 149 170 194 217 210 304 302 308 308 95 181 178 235 246
182 181 180 180 181 185 186 181 178 179 167 148 174 183 192 181 296 233 210 220 212 220 204 213 237 228 54 323 276 8 230 242 212 199 238 137 145 151 150 150 149 178 209 283 302 295 298 327 312 22 190 193 223 221
181 181 182 182 182 182 175 168 179 157 157 193 178 281 219 194 217 216 250 251 262 275 176 209 262 205 196 218 231 29 282 150 327 228 234 125 138 139 152 161 166 187 238 301 353 8 31 349 322 266 304 77 45 96
183 182 181 183 181 172 171 183 162 166 160 214 213 221 208 234 250 251 232 237 257 186 170 201 257 235 238 258 241 221 355 184 216 281 121 134 139 147 164 143 177 113 47 38 25 27 357 336 331 311 312 356 342 20
182 180 182 180 177 171 168 184 170 177 223 245 236 243 253 222 219 235 258 257 93 302 163 193 244 226 264 242 227 227 149 255 257 115 122 132 138 144 133 139 89 39 26 2 332 337 316 294 316 306 275 127 85 38
181 176 187 179 173 177 169 185 175 192 198 229 231 235 261 284 303 286 309 287 188 190 232 207 201 261 188 268 225 243 269 32 33 121 120 131 145 131 141 158 153 167 177 199 314 311 305 290 291 266 236 172 188 164
168 182 183 183 173 171 182 177 158 212 232 233 247 252 257 257 260 278 289 304 246 203 204 226 4 329 189 246 255 170 262 102 42 344 126 130 133 145 162 174 180 202 240 272 280 298 295 278 272 246 204 197 200 189
174 181 186 184 169 155 147 182 192 220 227 235 238 252 259 261 266 286 252 275 220 197 211 234 142 226 258 243 238 350 342 156 153 141 115 124 137 163 190 212 197 233 262 279 283 286 315 280 248 232 210 209 234 219
162 177 177 175 165 172 151 201 200 250 237 252 255 250 250 259 250 272 244 238 229 224 210 214 213 224 230 45 29 216 214 222 159 158 145 153 178 193 222 238 252 274 263 248 254 237 272 260 240 225 213 218 224 210
159 163 167 167 177 196 216 206 210 237 238 246 255 269 251 241 232 247 244 232 227 238 249 246 266 246 176 83 55 75 85 68 63 73 84 156 202 241 234 219 242 237 257 276 283 203 258 254 241 225 209 216 218 217
155 153 156 167 186 204 239 234 240 223 217 260 290 263 254 244 238 238 238 232 225 216 237 246 190 135 100 81 66 64 52 44 16 21 8 311 273 254 250 259 245 244 284 298 302 283 282 251 222 227 234 209 225 207
142 151 146 155 183 214 255 198 210 215 204 233 184 202 240 202 191 190 234 224 259 263 220 114 94 96 96 88 82 71 46 30 315 346 334 287 265 272 281 324 342 324 316 328 302 269 262 262 232 218 203 224 209 222
145 144 159 185 202 258 252 238 223 226 229 169 122 247 162 180 209 185 210 220 218 165 162 132 116 112 101 119 120 139 73 344 297 290 345 306 300 302 301 290 310 307 285 286 295 288 254 225 201 202 214 229 214 218
139 179 186 195 202 195 220 195 230 133 297 190 203 189 178 203 114 86 102 99 114 111 96 79 67 65 83 37 7 169 65 328 298 316 305 285 300 306 319 323 281 286 296 300 275 261 251 202 196 208 222 226 207 238
218 200 190 194 186 197 177 133 180 221 207 136 93 108 122 117 86 74 63 86 75 61 72 77 65 28 28 356 344 12 15 12 332 309 23 300 284 3 257 355 302 332 280 298 30 208 186 210 223 224 259 239 245 246
227 222 163 209 109 115 124 110 111 119 129 119 117 122 99 70 62 63 87 81 104 94 64 119 65 342 43 9 347 14 3 7 342 336 340 304 315 268 264 258 271 288 284 296 296 299 282 240 217 283 264 263 246 281
5 63 86 71 46 57 68 62 56 39 27 16 65 54 43 53 111 104 87 112 94 81 72 56 47 36 27 13 2 348 324 289 275 269 275 271 311 10 6 6 353 266 293 323 302 283 248 267 262 275 243 263 282 275
44 71 71 70 65 56 49 62 71 68 70 76 82 82 76 64 62 54 39 50 41 47 61 44 24 2 358 14 26 353 346 320 309 307 264 267 302 306 294 317 293 291 303 284 274 271 258 286 293 281 273 277 273 278
71 89 90 86 78 83 86 76 71 63 82 97 100 90 72 60 49 47 34 33 45 43 35 39 25 41 41 360 355 346 354 349 325 321 284 289 284 307 294 307 324 316 307 285 291 310 271 299 271 271 282 276 273 271
81 86 75 65 55 42 51 73 76 77 83 85 89 93 100 95 78 62 56 62 67 62 56 44 34 29 20 28 354 0 8 36 22 324 307 327 321 317 323 313 316 310 309 290 279 291 290 300 297 288 287 294 292 293
92 87 86 87 72 64 68 76 81 89 92 89 85 87 103 84 68 31 37 56 53 43 47 44 37 13 17 40 5 345 353 350 336 350 342 325 317 319 327 318 314 310 311 306 290 291 300 294 308 304 292 295 294 291
72 78 87 98 100 79 99 91 80 74 77 85 79 54 64 84 87 85 55 38 30 35 36 28 20 17 11 12 4 9 356 349 7 7 358 360 342 330 311 312 315 313 314 318 310 303 296 297 294 290 290 291 295 292
Wind_Speed_850mb
33 31 30 27 26 24 25 30 34 29 28 27 25 22 18 14 12 11 11 16 19 32 57 47 39 41 31 29 15 23 26 20 18 17 5 15 14 11 6 3 3 4 6 19 25 27 19 21 24 10 14 18 34 26
31 29 27 26 24 22 24 26 33 31 31 28 23 19 16 12 12 7 7 10 18 32 50 51 56 55 50 38 30 20 35 19 9 12 10 9 10 5 10 9 15 13 11 9 14 12 26 37 36 29 33 33 19 24
30 28 26 24 22 22 24 22 26 30 29 25 24 20 18 14 12 11 13 16 29 32 49 47 44 35 37 30 27 26 13 16 17 19 10 1 10 20 17 11 16 21 24 6 7 17 26 34 35 34 32 25 20 22
31 28 25 22 22 22 23 23 27 25 27 27 22 21 18 16 13 14 13 13 21 25 18 27 3 13 20 19 20 24 27 21 24 26 24 5 12 24 10 8 6 6 15 15 3 15 41 28 34 35 32 28 24 25
32 28 25 22 21 21 24 24 27 31 25 22 23 22 18 14 11 13 16 10 11 11 14 36 46 26 21 19 18 17 14 17 23 26 19 18 33 13 7 8 9 7 8 6 2 55 42 27 29 31 30 26 24 25
32 29 27 24 21 22 24 29 26 27 24 24 23 19 14 11 7 5 3 6 5 14 14 9 24 31 14 19 19 19 22 23 23 29 24 26 26 6 11 3 35 21 18 35 23 34 41 26 25 25 23 20 18 19
33 31 28 25 20 20 23 32 28 28 23 23 21 15 10 11 12 10 3 3 10 2 11 13 13 33 22 23 24 23 25 27 30 33 33 32 33 8 8 15 22 34 25 22 22 28 21 20 21 16 14 12 9 12
35 33 30 27 25 21 23 29 33 29 28 25 19 14 8 7 8 11 17 16 10 8 12 9 8 20 20 26 24 25 25 28 26 29 37 24 17 12 3 28 17 12 13 14 7 16 21 12 2 9 8 6 8 11
35 33 30 28 26 25 24 29 34 32 30 28 22 13 6 7 6 9 17 12 13 11 17 12 17 10 7 25 24 15 12 14 20 12 20 15 13 7 14 18 23 18 13 11 6 4 3 2 4 1 2 23 30 25
36 33 31 28 27 26 26 32 39 34 39 34 24 7 6 9 16 9 2 9 14 15 16 16 21 20 29 23 14 6 12 13 9 13 25 7 13 14 13 17 12 9 9 3 3 7 8 18 15 15 5 15 6 8
35 33 32 30 29 28 29 35 42 43 44 34 12 7 5 7 5 6 10 13 18 11 18 29 38 26 31 20 15 16 3 7 7 7 7 9 13 21 17 14 8 8 8 6 4 8 10 10 11 12 8 10 6 3
35 34 33 32 30 29 30 40 45 47 40 28 7 10 7 7 7 9 8 10 12 15 17 25 31 34 25 25 13 9 9 6 7 5 7 9 10 21 20 14 11 8 6 6 4 6 8 12 8 1 5 6 6 5
35 34 33 33 32 31 32 44 45 37 29 25 7 10 11 10 0 11 17 10 10 13 8 10 11 25 6 12 5 7 10 10 10 11 7 9 29 23 19 16 12 5 3 5 6 7 17 11 6 9 5 6 9 6
33 33 34 34 34 33 36 45 50 49 19 9 14 2 11 12 13 16 18 16 21 13 23 12 20 18 21 27 3 8 11 3 8 12 17 19 23 20 13 11 10 6 7 8 10 9 15 9 11 18 22 9 15 18
32 33 34 35 36 40 45 51 58 49 15 14 14 8 18 26 30 34 33 31 25 13 7 7 16 25 15 6 9 6 5 6 13 5 14 23 25 20 13 10 7 1 7 8 15 13 15 16 17 13 17 2 8 9
33 33 36 38 38 48 41 57 56 33 9 8 13 14 23 26 33 34 38 26 11 15 10 11 9 12 7 11 10 9 13 9 8 10 30 31 24 19 15 7 5 6 7 5 9 12 15 14 15 18 11 3 3 4
35 17 35 42 44 51 52 48 29 12 14 12 15 31 35 37 26 25 35 36 26 11 10 13 7 9 8 18 26 5 11 8 18 15 34 31 23 19 13 9 8 5 4 4 3 10 14 15 15 10 9 7 4 2
21 24 24 51 57 53 56 28 16 14 15 25 30 36 36 35 25 27 30 32 19 18 23 19 7 7 7 19 17 9 25 16 10 22 17 21 18 15 13 10 8 5 6 7 11 14 17 20 10 9 10 12 9 10
20 39 36 55 64 38 15 22 16 12 27 27 38 43 38 38 25 28 31 44 25 32 35 21 6 9 19 17 3 21 22 24 42 27 23 19 14 11 9 8 8 7 11 13 14 17 11 12 16 17 15 16 14 20
32 25 45 55 60 25 8 9 19 14 11 20 33 44 41 31 33 37 27 27 38 36 11 12 16 26 36 8 15 20 40 17 10 16 19 19 13 13 9 9 14 9 19 22 23 16 11 10 13 12 16 18 17 17
44 41 48 50 37 20 8 12 17 13 16 21 16 24 34 31 40 42 43 44 47 24 11 29 26 14 9 16 22 21 18 16 24 20 16 8 12 16 19 18 14 12 19 20 15 14 8 16 14 19 20 22 19 18
39 52 44 38 16 7 10 13 9 6 9 14 17 24 21 36 42 44 43 40 47 22 43 41 37 20 22 21 22 22 16 10 10 7 6 2 10 16 14 15 20 20 20 16 13 6 12 16 17 20 17 21 25 22
59 44 24 12 9 9 8 11 7 11 2 11 21 10 8 10 13 8 6 8 10 22 62 14 31 29 24 19 15 11 8 4 5 8 6 8 9 13 16 7 10 15 17 20 19 13 13 19 19 17 18 17 22 22
36 15 9 12 11 6 5 5 8 14 13 4 5 6 8 5 17 26 9 19 53 31 24 20 18 19 15 8 6 3 3 6 9 6 9 10 17 15 11 14 13 17 18 18 17 11 14 17 18 19 18 27 26 28
9 11 10 11 13 9 11 10 8 3 4 11 17 19 21 34 19 24 19 35 28 25 22 23 18 13 14 9 8 8 5 8 5 7 9 6 9 8 8 11 11 13 14 14 14 16 15 18 16 18 18 21 15 19
12 34 30 34 21 16 17 11 13 17 18 18 27 22 33 14 9 7 7 18 31 24 14 17 13 14 14 15 16 4 7 5 12 8 3 4 5 2 0 3 2 6 6 1 2 4 12 14 17 9 15 20 19 22
8 11 8 8 25 29 23 38 40 24 26 25 16 12 8 10 11 6 23 15 16 15 8 7 3 11 7 8 10 19 13 11 5 8 13 7 3 4 5 9 7 9 11 11 12 8 10 13 18 23 22 25 31 35
15 29 24 44 40 41 32 26 26 21 13 8 10 15 9 8 5 8 15 12 7 5 8 11 9 24 17 15 15 17 12 17 16 11 9 10 17 14 7 9 8 15 14 14 20 14 24 25 17 21 33 36 29 33
22 38 41 40 34 20 22 20 19 32 39 41 29 21 19 31 30 26 28 17 17 18 13 9 11 14 10 12 13 21 24 17 17 27 30 15 27 21 19 19 25 37 32 26 28 36 44 32 30 26 35 33 34 32
30 34 38 37 32 19 20 21 43 42 41 47 46 40 34 31 23 10 14 14 19 13 11 12 17 15 12 14 17 10 9 11 15 18 9 4 7 18 24 25 27 22 30 36 19 22 19 20 23 33 33 38 40 37
16 31 42 35 15 24 24 30 37 40 46 42 36 37 36 33 40 39 33 26 24 27 30 27 22 15 20 19 20 20 22 13 16 11 12 20 14 18 25 25 27 24 25 24 27 33 40 35 39 36 35 37 40 46
25 36 34 28 25 31 39 44 41 35 36 34 31 30 28 27 27 40 38 28 29 31 28 26 20 18 29 14 25 14 19 23 18 25 32 26 25 20 22 23 25 26 28 28 33 33 33 40 34 38 40 50 58 58
38 24 26 20 10 6 13 16 20 26 31 32 18 13 24 24 10 13 21 23 25 26 32 25 21 21 32 42 21 25 31 25 32 24 31 26 27 24 20 27 31 36 36 37 40 40 40 45 47 41 45 57 59 65
Wind_Direction_850mb
246 248 249 247 250 253 242 229 224 228 232 230 234 245 246 253 267 286 270 271 281 286 284 280 295 299 308 306 340 347 289 318 344 6 88 324 84 296 3 147 103 13 21 277 250 252 223 130 101 174 158 62 55 65
242 243 243 244 242 246 239 235 223 223 230 230 228 238 234 245 253 273 325 307 291 281 273 283 282 273 265 267 281 285 285 313 328 356 62 261 351 200 295 312 45 337 138 291 328 60 81 70 103 82 84 76 64 73
234 236 239 240 240 239 232 224 217 215 216 217 226 227 231 237 254 260 285 313 319 292 291 270 267 276 241 245 256 252 317 358 303 344 143 302 332 317 319 2 332 17 28 267 355 97 105 103 101 91 93 92 83 69
229 228 230 229 229 230 223 216 209 205 206 214 218 218 232 243 251 273 272 298 320 306 281 302 271 262 247 242 244 244 270 299 306 301 297 225 204 286 39 234 242 88 328 329 355 199 105 99 104 106 95 75 61 59
222 219 221 224 221 221 208 205 204 204 201 210 212 213 230 252 259 285 287 271 299 285 305 303 314 267 231 223 237 254 253 284 293 288 290 294 296 359 116 131 41 348 281 40 314 245 95 111 105 98 85 72 64 62
214 213 213 213 211 209 205 193 195 192 200 196 199 210 225 232 253 334 287 100 280 268 296 294 319 279 238 203 225 240 247 254 266 274 280 295 310 312 294 85 163 137 17 234 268 90 113 111 84 82 85 81 84 83
209 209 208 207 206 205 205 192 194 199 197 193 191 201 211 225 220 219 316 214 332 265 261 273 280 239 226 213 227 233 241 255 266 270 275 269 284 253 307 291 151 174 140 130 119 120 110 97 99 94 91 90 79 81
205 206 204 204 203 201 198 198 197 194 192 189 193 199 221 240 256 267 250 264 316 281 264 276 262 278 193 210 223 223 252 256 246 255 264 276 292 249 284 131 133 106 117 138 110 57 99 100 126 148 53 360 327 93
202 203 202 202 200 200 197 193 185 188 191 192 192 195 215 238 243 255 239 239 245 253 307 271 264 337 209 235 234 163 240 256 250 224 241 258 249 243 116 125 135 146 180 147 101 40 7 188 248 95 30 23 78 89
195 198 198 198 196 195 191 185 180 188 183 179 170 151 233 172 246 262 268 194 206 217 231 255 275 275 291 284 224 228 191 251 215 222 245 196 250 92 157 106 122 160 223 182 321 306 298 68 49 7 356 63 64 114
190 190 191 189 188 188 186 181 179 171 169 167 160 194 207 242 161 230 229 216 201 221 219 237 239 262 288 287 236 197 293 263 282 195 198 222 229 164 130 131 157 176 199 223 245 328 332 326 348 81 73 346 242 190
184 185 185 185 185 183 183 180 178 179 176 163 131 161 175 210 220 255 226 222 232 229 249 210 225 224 260 311 238 224 246 252 250 104 227 241 113 117 133 140 149 170 194 217 210 304 302 308 308 95 181 178 235 246
182 181 180 180 181 185 186 181 178 179 167 148 174 183 192 181 296 233 210 220 212 220 204 213 237 228 54 323 276 8 230 242 212 199 238 137 145 151 150 150 149 178 209 283 302 295 298 327 312 22 190 193 223 221
181 181 182 182 182 182 175 168 179 157 157 193 178 281 219 194 217 216 250 251 262 275 176 209 262 205 196 218 231 29 282 150 327 228 234 125 138 139 152 161 166 187 238 301 353 8 31 349 322 266 304 77 45 96
183 182 181 183 181 172 171 183 162 166 160 214 213 221 208 234 250 251 232 237 257 186 170 201 257 235 238 258 241 221 355 184 216 281 121 134 139 147 164 143 177 113 47 38 25 27 357 336 331 311 312 356 342 20
182 180 182 180 177 171 168 184 170 177 223 245 236 243 253 222 219 235 258 257 93 302 163 193 244 226 264 242 227 227 149 255 257 115 122 132 138 144 133 139 89 39 26 2 332 337 316 294 316 306 275 127 85 38
181 176 187 179 173 177 169 185 175 192 198 229 231 235 261 284 303 286 309 287 188 190 232 207 201 261 188 268 225 243 269 32 33 121 120 131 145 131 141 158 153 167 177 199 314 311 305 290 291 266 236 172 188 164
168 182 183 183 173 171 182 177 158 212 232 233 247 252 257 257 260 278 289 304 246 203 204 226 4 329 189 246 255 170 262 102 42 344 126 130 133 145 162 174 180 202 240 272 280 298 295 278 272 246 204 197 200 189
174 181 186 184 169 155 147 182 192 220 227 235 238 252 259 261 266 286 252 275 220 197 211 234 142 226 258 243 238 350 342 156 153 141 115 124 137 163 190 212 197 233 262 279 283 286 315 280 248 232 210 209 234 219
162 177 177 175 165 172 151 201 200 250 237 252 255 250 250 259 250 272 244 238 229 224 210 214 213 224 230 45 29 216 214 222 159 158 145 153 178 193 222 238 252 274 263 248 254 237 272 260 240 225 213 218 224 210
159 163 167 167 177 196 216 206 210 237 238 246 255 269 251 241 232 247 244 232 227 238 249 246 266 246 176 83 55 75 85 68 63 73 84 156 202 241 234 219 242 237 257 276 283 203 258 254 241 225 209 216 218 217
155 153 156 167 186 204 239 234 240 223 217 260 290 263 254 244 238 238 238 232 225 216 237 246 190 135 100 81 66 64 52 44 16 21 8 311 273 254 250 259 245 244 284 298 302 283 282 251 222 227 234 209 225 207
142 151 146 155 183 214 255 198 210 215 204 233 184 202 240 202 191 190 234 224 259 263 220 114 94 96 96 88 82 71 46 30 315 346 334 287 265 272 281 324 342 324 316 328 302 269 262 262 232 218 203 224 209 222
145 144 159 185 202 258 252 238 223 226 229 169 122 247 162 180 209 185 210 220 218 165 162 132 116 112 101 119 120 139 73 344 297 290 345 306 300 302 301 290 310 307 285 286 295 288 254 225 201 202 214 229 214 218
139 179 186 195 202 195 220 195 230 133 297 190 203 189 178 203 114 86 102 99 114 111 96 79 67 65 83 37 7 169 65 328 298 316 305 285 300 306 319 323 281 286 296 300 275 261 251 202 196 208 222 226 207 238
218 200 190 194 186 197 177 133 180 221 207 136 93 108 122 117 86 74 63 86 75 61 72 77 65 28 28 356 344 12 15 12 332 309 23 300 284 3 257 355 302 332 280 298 30 208 186 210 223 224 259 239 245 246
227 222 163 209 109 115 124 110 111 119 129 119 117 122 99 70 62 63 87 81 104 94 64 119 65 342 43 9 347 14 3 7 342 336 340 304 315 268 264 258 271 288 284 296 296 299 282 240 217 283 264 263 246 281
5 63 86 71 46 57 68 62 56 39 27 16 65 54 43 53 111 104 87 112 94 81 72 56 47 36 27 13 2 348 324 289 275 269 275 271 311 10 6 6 353 266 293 323 302 283 248 267 262 275 243 263 282 275
44 71 71 70 65 56 49 62 71 68 70 76 82 82 76 64 62 54 39 50 41 47 61 44 24 2 358 14 26 353 346 320 309 307 264 267 302 306 294 317 293 291 303 284 274 271 258 286 293 281 273 277 273 278
71 89 90 86 78 83 86 76 71 63 82 97 100 90 72 60 49 47 34 33 45 43 35 39 25 41 41 360 355 346 354 349 325 321 284 289 284 307 294 307 324 316 307 285 291 310 271 299 271 271 282 276 273 271
81 86 75 65 55 42 51 73 76 77 83 85 89 93 100 95 78 62 56 62 67 62 56 44 34 29 20 28 354 0 8 36 22 324 307 327 321 317 323 313 316 310 309 290 279 291 290 300 297 288 287 294 292 293
92 87 86 87 72 64 68 76 81 89 92 89 85 87 103 84 68 31 37 56 53 43 47 44 37 13 17 40 5 345 353 350 336 350 342 325 317 319 327 318 314 310 311 306 290 291 300 294 308 304 292 295 294 291
72 78 87 98 100 79 99 91 80 74 77 85 79 54 64 84 87 85 55 38 30 35 36 28 20 17 11 12 4 9 356 349 7 7 358 360 342 330 311 312 315 313 314 318 310 303 296 297 294 290 290 291 295 292